SCP
0 0 0 0 0 0 0 0 0 0 0 0 0 0 0 0 0 0 0 0 0 0 0 0 0 0 0 0 0 0 0 0 0 0 0 0 0 0 0 0 0 0 0 0 0 0 0 0 0
0 0 0 0 0 0 0 0 0 0 0 0 0 0 0 0 0 0 0 0 0 0 0 0 0 0 0 0 0 0 0 0 0 0 0 0 0 0 0 0 0 0 0 0 0 0 0 0 0
0 0 0 0 0 0 0 0 0 0 0 0 0 0 0 0 0 0 0 0 0 0 0 0 0 0 0 0 0 0 0 0 0 0 0 0 0 0 0 0 0 0 0 0 0 0 0 0 0
0 0 0 0 0 0 0 0 0 0 0 0 0 0 0 0 0 0 0 0 0 0 0 0 0 0 0 0 0 0 0 0 0 0 0 0 0 0 0 0 0 0 0 0 0 0 0 0 0
0 0 0 0 0 0 0 0 0 0 0 0 0 0 0 0 0 0 0 0 0 0 0 0 0 0 0 0 0 0 0 0 0 0 0 0 0 0 0 0 0 0 0 0 0 0 0 0 0
0 0 0 0 0 0 0 0 0 0 0 0 0 0 0 0 0 0 0 0 0 0 0 0 0 0 0 0 0 0 0 0 0 0 0 0 0 0 0 0 0 0 0 0 0 0 0 0 0
0 0 0 0 0 0 0 0 0 0 0 0 0 0 0 0 0 0 0 0 0 0 0 0 0 0 0 0 0 0 0 0 0 0 0 0 0 0 0 0 0 0 0 0 0 0 0 0 0
0 0 0 0 0 0 0 0 0 0 0 0 0 0 0 0 0 0 0 0 0 0 0 0 0 0 0 0 0 0 0 0 0 0 0 0 0 0 0 0 0 0 0 0 0 0 0 0 0
0 0 0 0 0 0 0 0 0 0 0 0 0 0 0 0 0 0 0 0 0 0 0 0 0 0 0 0 0 0 0 0 0 0 0 0 0 0 0 0 0 0 0 0 0 0 0 0 0
0 0 0 0 0 0 0 0 0 0 0 0 0 0 0 0 0 0 0 0 0 0 0 0 0 0 0 0 0 0 0 0 0 0 0 -0 -0 0 0 0 0 0 0 0 0 0 0 0 0
0 0 0 0 0 0 0 0 0 0 0 0 0 0 0 0 0 0 0 0 0 0 0 0 0 0 0 0 0 0 0 0 0 0 -0 -0 -0 0 0 0 0 0 0 0 0 0 0 0 0
0 0 0 0 0 0 0 0 0 0 0 0 0 0 0 0 0 0 0 0 0 0 0 0 0 0 0 0 0 0 0 0 0 0 0 0 0 0 0 0 0 0 0 0 0 0 0 0 0
0 0 0 0 0 0 0 0 0 0 0 0 0 0 0 0 0 0 0 0 0 0 0 0 0 0 0 0 0 0 0 0 0 -0 -0 -0 0 0 0 0 0 0 0 0 0 0 0 0 0
0 0 0 0 0 0 0 0 0 0 0 0 0 0 0 0 0 0 0 0 0 0 0 0 0 0 0 0 0 0 0 -0 -0 -0 -0 -0 0 0 0 0 0 0 0 0 0 0 0 0 0
0 0 0 0 0 0 0 0 0 0 0 0 0 0 0 0 0 0 0 0 0 0 -0 -0 -0 0 0 0 0 0 0 -0 -0 -0 -0 0 0 0 0 0 0 0 0 0 0 0 0 0 0
0 0 0 0 0 0 0 0 0 0 0 0 0 0 0 0 0 0 0 0 0 0 0 -0 0 0 0 0 0 0 -0 -0 -0 -0 -0 0 0 0 0 0 0 0 0 0 0 0 0 0 0
0 0 0 0 0 0 0 0 0 0 0 0 0 0 0 0 0 0 0 0 0 0 0 0 0 0 0 0 0 0 -0 -0 -0 -0 -0 0 0 0 0 0 0 0 0 0 0 0 0 0 0
0 0 0 0 0 0 0 0 0 0 0 0 0 0 0 0 0 0 0 0 0 0 0 0 0 0 0 0 0 -0 -0 -0 -0 -0 0 0 0 0 0 0 0 0 0 0 0 0 0 0 0
0 0 0 0 0 0 0 0 0 0 0 0 0 0 0 0 0 0 0 0 0 0 0 0 0 0 0 0 0 -0 -0 -0 0 0 0 0 0 0 0 0 0 0 0 0 0 0 0 0 0
0 0 0 0 0 0 0 0 0 0 0 0 0 0 0 0 0 0 0 0 0 0 0 0 0 0 0 0 0 0 0 0 0 0 0 0 0 0 0 0 0 0 0 0 0 0 0 0 0
0 0 0 0 0 0 0 0 0 0 0 0 0 0 0 0 0 0 0 0 0 0 0 0 0 0 0 0 0 0 0 0 0 0 0 0 0 0 0 0 0 0 0 0 0 0 0 0 0
0 0 0 0 0 0 0 0 0 0 0 0 0 0 0 0 0 0 0 0 0 0 0 0 0 0 0 0 0 0 0 0 0 0 0 0 0 0 0 0 0 0 0 0 0 0 0 0 0
0 0 0 0 0 0 0 0 0 0 0 0 0 0 0 0 0 0 0 0 0 0 0 0 0 0 0 0 0 0 0 0 0 0 0 0 0 0 0 0 0 0 0 0 0 0 0 0 0
0 0 0 0 0 0 0 0 0 0 0 0 0 0 0 0 0 0 0 0 0 0 0 0 0 0 0 0 0 0 0 0 0 0 0 0 0 0 0 0 0 0 0 0 0 0 0 0 0
0 0 0 0 0 0 0 0 0 0 0 0 0 0 0 0 0 0 0 0 0 0 0 0 0 0 0 0 0 0 0 0 0 0 0 0 0 0 0 0 0 0 0 0 0 0 0 0 0
0 0 0 0 0 0 0 0 0 0 0 0 0 0 0 0 0 0 0 0 0 0 0 0 0 0 0 0 0 0 0 0 0 0 0 0 0 0 0 0 0 0 0 0 0 0 0 0 0
0 0 0 0 0 0 0 0 0 0 0 0 0 0 0 0 0 0 0 0 0 0 0 0 0 0 0 0 0 0 0 0 0 0 0 0 0 0 0 0 0 0 0 0 0 0 0 0 0
0 0 0 0 0 0 0 0 0 0 0 0 0 0 0 0 0 0 0 0 0 0 0 0 0 0 0 0 0 0 0 0 0 0 0 0 0 0 0 0 0 0 0 0 0 0 0 0 0
0 0 0 0 0 0 0 0 0 0 0 0 0 0 0 0 0 0 0 0 0 0 0 0 0 0 0 0 0 0 0 0 0 0 0 0 0 0 0 0 0 0 0 0 0 0 0 0 0
0 0 0 0 0 0 0 0 0 0 0 0 0 0 0 0 0 0 0 0 0 0 0 0 0 0 0 0 0 0 0 0 0 0 0 0 0 0 0 0 0 0 0 0 0 0 0 0 0
Wind_Speed
2 2 3 3 4 2 4 4 3 3 4 4 5 5 5 6 5 6 5 6 7 8 9 10 11 11 11 11 11 11 11 11 11 10 10 9 9 9 8 8 7 7 7 7 6 6 6 5 5
1 2 3 4 3 3 5 4 5 5 6 5 5 5 6 7 7 7 6 7 9 9 9 10 12 12 11 11 12 12 11 11 11 11 10 9 9 9 8 8 7 7 6 6 6 6 6 5 5
1 3 3 3 1 2 6 5 6 7 5 3 4 5 5 6 6 6 7 9 10 10 9 11 11 11 11 11 12 12 11 11 11 10 10 9 9 8 8 8 7 7 7 6 6 6 5 5 5
2 3 3 2 5 5 5 6 5 7 5 4 5 7 6 5 5 8 10 10 11 10 10 12 11 11 11 12 12 12 11 11 10 10 9 8 8 8 8 7 7 7 6 6 6 6 6 5 5
2 3 3 4 5 5 4 4 4 5 4 5 6 8 7 6 9 11 10 10 11 10 10 11 11 11 11 11 11 11 10 10 9 9 8 7 7 7 7 7 6 6 5 6 5 5 5 5 5
2 3 3 5 6 5 5 4 4 6 7 7 7 8 7 6 10 10 10 9 10 10 9 11 11 10 10 11 10 10 9 9 8 7 7 6 7 7 6 6 5 5 5 5 5 5 5 5 5
2 1 2 5 6 5 5 4 4 5 7 6 4 7 8 9 9 10 10 9 9 9 8 8 9 10 10 9 9 9 8 7 7 7 6 6 6 6 6 5 5 5 5 5 5 4 4 4 4
2 2 4 5 5 5 5 5 5 5 7 5 2 5 9 11 10 10 9 9 9 8 8 7 7 7 7 8 9 7 7 6 6 6 6 5 3 4 3 3 6 6 6 5 5 4 4 3 4
3 3 3 3 4 5 5 5 5 4 6 5 5 6 11 14 12 10 9 8 8 7 7 7 7 6 5 5 6 5 6 5 2 4 4 1 2 4 2 8 7 6 6 5 5 4 3 1 2
1 1 3 3 3 4 5 5 5 5 7 7 8 10 12 12 11 10 9 9 8 7 7 6 6 5 5 4 4 2 3 3 3 4 4 3 3 4 4 5 4 4 3 1 3 2 3 5 1
1 2 3 3 3 3 5 5 4 5 6 8 11 13 12 11 10 9 8 7 7 7 6 6 5 5 4 3 3 2 2 2 3 5 4 3 3 2 2 2 1 1 1 1 1 3 1 2 2
2 3 2 3 3 3 4 5 6 5 6 8 12 13 12 11 10 9 8 7 6 6 5 5 4 4 4 4 3 2 2 3 3 4 5 4 3 3 3 2 3 3 2 2 2 2 2 2 2
4 3 4 3 4 5 7 6 7 8 9 11 12 12 11 10 9 8 7 7 6 6 5 4 3 3 3 4 2 2 3 3 4 3 4 5 3 3 3 3 3 3 2 2 2 2 3 3 3
5 6 5 4 4 5 8 7 6 7 9 12 12 11 10 8 8 8 7 6 6 6 5 5 4 3 3 3 2 3 3 2 3 3 4 5 4 3 3 3 3 3 3 3 3 3 2 2 2
6 7 5 3 3 4 6 6 6 8 9 11 10 9 8 7 7 6 6 5 5 6 6 5 4 3 3 3 3 3 2 3 4 3 4 5 4 4 4 3 3 3 3 3 3 3 2 2 1
6 6 5 4 2 3 4 5 6 8 9 10 9 8 7 6 5 5 5 5 5 5 5 5 4 3 4 3 3 2 3 4 3 3 3 5 5 5 4 3 4 4 3 3 3 3 2 2 2
5 6 6 5 2 3 4 6 7 7 8 9 8 7 7 6 5 5 5 5 5 5 5 5 5 4 4 4 3 3 3 3 3 3 4 5 5 5 4 4 4 4 3 3 3 3 3 3 2
5 5 5 5 3 4 5 6 7 7 7 7 7 7 7 7 5 5 5 5 5 5 5 5 5 4 5 3 3 3 3 3 3 3 4 5 4 5 4 3 4 4 3 3 3 3 3 2 2
3 5 5 4 3 3 5 6 6 7 7 7 7 7 7 6 6 6 6 5 5 5 5 5 5 5 4 2 2 2 3 2 3 3 4 4 5 5 4 3 4 4 4 4 4 3 3 2 2
5 6 5 5 3 2 4 4 5 6 7 6 7 7 7 7 7 7 6 6 6 5 5 5 5 5 4 2 2 2 2 2 3 2 3 4 5 5 4 4 3 4 3 3 4 3 3 2 2
5 5 5 5 4 3 4 4 5 6 6 6 6 6 7 7 7 7 7 6 6 5 5 4 4 5 3 3 2 2 2 2 2 2 2 4 4 4 4 5 4 4 3 3 3 3 3 3 2
4 3 5 6 5 3 4 3 5 7 8 8 8 8 8 7 6 6 6 6 6 5 5 5 5 5 4 3 2 2 1 2 2 2 2 2 3 4 4 4 4 4 3 3 3 4 3 3 2
3 5 5 5 4 3 4 4 5 8 8 9 9 9 9 8 8 7 6 6 6 5 5 4 5 4 4 3 3 2 2 2 2 1 2 2 3 3 4 4 3 4 3 3 4 3 3 2 3
7 7 5 4 4 4 3 4 3 7 9 10 10 9 9 9 9 7 6 6 5 5 4 4 4 4 3 3 3 2 2 2 2 1 2 2 2 2 4 3 3 3 3 3 3 3 3 3 3
7 6 4 5 4 2 2 3 1 3 5 8 10 10 10 9 9 8 8 7 6 6 5 5 5 4 4 3 3 3 2 1 1 1 2 2 2 2 4 3 3 3 3 3 3 3 3 3 3
7 6 3 2 3 3 4 3 2 3 4 6 8 10 10 10 9 9 8 7 7 6 6 6 5 5 4 3 3 2 3 1 1 1 1 2 2 3 3 3 3 3 3 3 3 2 3 3 3
6 5 2 2 1 2 3 3 4 4 6 8 10 11 11 10 10 9 9 8 7 7 6 6 6 5 4 3 3 2 2 1 1 1 1 2 2 2 3 3 3 3 3 3 2 2 3 3 3
3 4 4 4 3 3 3 4 4 9 9 10 11 11 11 10 10 9 8 8 7 6 6 6 5 5 4 4 3 2 2 1 1 1 1 2 3 3 3 3 3 3 3 2 2 2 3 2 2
6 6 5 4 3 2 2 3 2 5 9 11 11 11 11 11 10 9 8 8 7 7 6 5 5 5 4 3 3 3 2 1 1 1 1 1 2 2 2 3 3 3 3 3 2 2 2 3 2
5 6 7 5 3 3 2 3 3 3 6 9 10 10 10 10 10 9 9 8 7 7 6 6 5 4 4 3 3 2 2 2 1 1 1 1 2 2 2 3 3 3 3 3 3 3 3 3 3
Wind_Direction
213 259 269 252 230 171 99 94 101 108 90 74 66 71 70 51 38 75 94 117 118 113 109 111 104 105 105 103 100 97 95 94 93 91 90 89 88 85 81 77 73 69 66 62 55 49 45 44 43
272 276 250 250 239 147 105 105 99 85 99 106 86 79 78 70 62 89 111 115 117 109 107 101 102 101 100 100 99 97 93 90 88 87 85 83 81 79 74 70 66 61 58 54 50 43 38 37 37
236 269 270 249 194 94 103 103 99 102 111 114 95 64 56 69 85 96 109 121 114 106 103 99 99 99 98 97 96 94 91 87 85 82 79 76 74 70 64 61 57 53 50 46 42 37 36 35 36
256 234 238 207 110 74 92 111 121 127 113 93 108 92 76 58 83 106 118 120 111 105 102 99 97 96 96 94 93 92 91 87 84 80 77 71 67 64 59 56 51 44 41 39 35 29 30 32 35
252 257 200 140 104 90 89 109 143 134 114 106 108 100 87 77 100 112 117 115 111 106 102 101 95 94 93 91 89 89 89 86 83 78 73 66 61 54 48 44 42 34 32 33 32 26 26 24 28
243 242 192 139 110 103 96 103 125 114 106 110 112 107 92 107 116 118 118 114 110 107 104 105 99 93 93 92 90 87 86 83 79 72 66 60 56 49 42 38 36 29 26 25 28 28 24 25 25
285 252 150 130 123 113 91 100 104 109 107 96 102 109 116 121 119 124 121 116 112 109 106 105 109 109 103 92 86 85 82 79 75 67 59 53 48 47 43 39 31 22 21 21 23 23 22 25 30
311 247 146 136 133 107 94 100 84 81 90 85 76 113 129 131 131 127 122 118 114 112 110 106 102 105 110 111 96 86 78 71 69 65 57 57 82 81 61 47 41 22 21 22 20 19 23 28 34
266 222 143 113 120 106 112 118 92 88 105 89 65 85 116 131 136 134 129 123 116 114 114 111 108 105 102 97 101 108 102 83 109 106 88 285 34 47 71 47 35 25 26 25 23 19 23 336 127
263 164 88 61 82 107 108 107 114 130 117 109 104 107 122 135 141 138 133 127 123 120 116 113 113 110 105 93 98 84 79 76 46 47 50 27 31 34 20 93 57 36 21 45 40 337 245 258 175
86 75 87 89 90 111 113 100 103 128 110 123 134 134 139 141 141 135 127 121 119 122 117 116 115 108 100 96 77 69 70 69 52 37 45 26 20 26 18 20 92 55 334 6 76 250 326 335 6
120 88 96 100 103 111 105 107 100 81 89 111 129 135 139 145 140 138 131 123 122 117 115 116 115 117 108 94 82 70 63 54 48 38 29 29 22 5 22 10 14 1 16 6 345 338 356 335 329
138 111 91 102 108 107 105 101 97 92 105 116 126 134 137 138 137 134 130 131 126 122 119 116 118 111 106 93 85 76 55 32 49 38 25 31 22 16 19 23 18 5 3 1 348 335 6 345 351
123 118 100 94 111 116 114 108 109 106 125 129 134 136 138 139 138 134 135 133 129 126 125 125 125 110 107 98 86 69 67 61 42 44 30 30 32 23 12 24 20 13 7 360 342 1 352 347 2
139 134 115 98 114 126 139 114 110 127 141 136 138 136 138 140 141 140 135 136 133 128 128 124 119 117 100 84 74 74 70 58 52 45 29 37 34 22 21 14 21 15 8 5 0 12 352 1 5
167 167 143 109 119 149 182 128 118 144 153 144 144 142 146 142 141 133 133 137 134 134 132 128 132 124 103 89 82 80 69 63 66 55 37 37 38 27 18 13 19 17 11 10 13 4 8 23 5
179 170 143 132 112 153 163 128 131 154 158 152 154 154 154 149 147 138 139 142 140 140 139 136 128 118 102 96 99 78 78 73 66 57 44 35 35 25 27 18 11 16 16 16 10 20 6 23 14
162 159 152 137 119 146 145 130 135 159 163 158 158 161 160 158 154 148 145 145 145 145 141 132 125 124 117 116 102 93 84 83 70 57 46 34 27 25 23 22 20 17 21 22 23 34 23 16 9
149 159 148 120 118 159 141 136 147 160 170 171 166 164 160 154 145 143 147 151 153 153 150 137 139 132 129 115 115 109 101 96 84 62 50 38 28 24 26 16 25 12 26 19 19 24 36 25 5
160 160 144 120 127 158 138 136 152 165 176 179 172 167 165 154 149 146 153 158 160 156 159 152 145 138 131 107 91 83 87 83 68 62 51 33 28 23 18 24 25 26 25 26 22 15 357 28 7
172 180 164 148 140 153 176 170 168 165 177 177 179 173 169 165 163 158 161 161 161 163 160 156 150 142 135 135 123 122 124 141 125 91 57 33 27 25 17 18 17 14 18 29 16 9 2 2 17
171 172 174 169 182 169 216 193 174 176 177 181 179 174 173 169 168 162 166 167 167 163 159 161 153 150 146 154 149 128 110 86 68 48 54 56 43 34 22 17 17 19 21 24 16 22 3 352 2
129 145 163 177 196 189 203 223 166 176 187 185 182 176 172 171 172 168 171 167 163 157 159 161 153 149 146 151 134 158 107 84 87 83 69 51 56 38 32 20 20 26 25 22 18 16 7 1 355
143 146 145 181 215 216 203 227 178 182 192 182 179 175 170 168 166 166 166 162 153 151 154 153 151 141 142 154 154 143 105 96 94 71 51 46 59 39 38 19 19 25 25 26 20 22 28 12 8
184 181 182 187 201 190 146 226 194 150 186 186 178 173 168 166 165 167 166 165 159 160 158 154 151 146 151 158 148 135 126 119 91 61 58 27 40 34 27 16 18 25 20 23 18 24 22 25 13
194 217 246 210 186 144 170 216 125 124 167 184 176 167 164 163 166 168 167 164 162 160 158 156 151 146 144 146 134 127 124 118 68 41 23 30 32 28 17 9 18 21 18 18 24 12 16 11 14
188 213 280 293 231 207 172 167 145 145 162 172 169 162 164 164 166 163 160 157 158 158 158 157 148 144 141 139 131 119 108 97 78 75 48 37 30 25 14 10 21 26 22 13 12 13 11 3 360
260 201 204 226 213 203 181 193 176 168 171 168 168 168 165 162 161 157 156 153 152 150 151 150 148 142 137 135 129 122 123 118 75 56 53 35 30 31 15 14 18 23 25 18 13 6 1 3 13
183 200 222 227 256 260 182 137 85 175 174 173 169 167 164 161 157 154 152 149 147 147 149 151 151 144 140 139 133 137 133 122 109 72 53 28 32 30 20 24 19 21 15 12 11 1 3 352 357
231 227 227 231 207 242 265 104 86 167 167 171 164 160 158 156 152 150 148 146 149 150 152 152 152 147 143 145 143 134 122 121 111 78 58 41 43 34 30 30 23 26 20 13 7 0 352 346 344